CZ-4 DEB, 26756

Orbit data source: Space-Track

CZ-4 DEB, 26756 is space debris in SSO originally from a launch on Thu, 14 Oct 1999 UTC launched from the Taiyaun Space Center, China (TSC). Debris objects in space refer to the collection of defunct objects orbiting the Earth. Examples of debris include non-operational satellites, rocket bodies, and fragments generated from explosions, collisions, or faulty payload assembly.

Loading next visibility...
Identifier
26756, 1999-057MD
Orbit
SSO
Country
Flag of CNCN / PRC
Related business
Manufacturer
Unknown
Mission
Spacecraft
Bus & Motor
Unknown
Mass
Unknown
Launch date (UTC)
1999-10-14 (26 years ago)
Launch vehicle
Unknown
Launch site
Taiyaun Space Center, China (TSC)
Object type
Payload
Rocket body
Debris
Shape & HBR
Unknown shape, 0.1 m
Radar Cross Section
Small (<0.1 m²)

Expand to show TLE details & history
Last TLE update: 14 hours ago

TLE from 14 hours ago
0 CZ-4 DEB
1 26756U 99057MD  26037.06806275  .00000501  00000-0  16453-3 0  9996
2 26756  98.7157  82.2061 0082569 108.8264 252.1902 14.40759993305081
Epoch: 2026-02-06T01:38Z
TLE epoch observation values (Epoch: 2026-02-06T01:38:00.621Z)
Latitude
-0.00001°
Longitude
-78.50774°
Altitude
777.391 km
Speed
7.456 km/s
True Right ascension
05h 28m 49s
True Declination
0° 00' 00"
Sunlit
Object was in full shadow at epoch
Visualization orbit readout
Latitude
Unknown
Longitude
Unknown
Altitude
Unknown
Speed
Unknown
Apparent Right ascension
Unknown
Apparent Declination
Unknown
Sunlit
N/A
Visualization observer readout
Local Sidereal Time
17:45:34
Azimuth
Unknown
Elevation
Unknown
Doppler factor
Unknown
Orbital elements
Apogee altitude
812.002 km
Perigee altitude
694.237 km
Semi-major axis
7,131.256 km
Eccentricity
0.00826
Inclination
98.7157°
RAAN
82.2061°
Arg. of periapsis
108.8264°
True anomaly
251.29224°
Mean anomaly
252.1902°
Eccentric anomaly
251.74093°
Mean motion
3.60408 °/min
Orbital period
99.89 mins
BSTAR
0.00016453
Loading maneuver chart data...
Computing Atmospheric mass density...
Loading historical data...
Loading historical data...
Loading historical data...
Loading historical data...
Loading historical data...
Loading historical data...
Loading historical data...

Documentation

Showing up to 5 results
|